TimeCDT,TemperatureF,Dew PointF,Humidity,Sea Level PressureIn,VisibilityMPH,Wind Direction,Wind SpeedMPH,Gust SpeedMPH,PrecipitationIn,Events,Conditions,WindDirDegrees,DateUTC
12:15 AM,38.8,32.9,79,30.18,10.0,NNW,10.4,-,N/A,,Mostly Cloudy,340,2012-10-29 05:15:00
12:35 AM,38.8,33.1,80,30.18,10.0,NNW,10.4,-,N/A,,Mostly Cloudy,330,2012-10-29 05:35:00
12:55 AM,38.7,32.9,80,30.18,10.0,NNW,9.2,-,N/A,,Overcast,330,2012-10-29 05:55:00
1:15 AM,38.3,32.9,81,30.18,10.0,NNW,10.4,-,N/A,,Mostly Cloudy,330,2012-10-29 06:15:00
1:35 AM,37.4,33.8,87,30.18,10.0,NNW,10.4,-,N/A,,Mostly Cloudy,330,2012-10-29 06:35:00
1:55 AM,37.8,32.9,83,30.18,10.0,NNW,10.4,-,N/A,,Scattered Clouds,340,2012-10-29 06:55:00
2:15 AM,37.4,32.9,84,30.18,10.0,NNW,10.4,-,N/A,,Scattered Clouds,330,2012-10-29 07:15:00
2:35 AM,36.5,32.5,86,30.18,10.0,NNW,10.4,-,N/A,,Scattered Clouds,330,2012-10-29 07:35:00
2:55 AM,36.0,32.2,86,30.18,10.0,NNW,10.4,-,N/A,,Unknown,330,2012-10-29 07:55:00
3:15 AM,35.6,32.0,87,30.18,10.0,NNW,10.4,-,N/A,,Unknown,340,2012-10-29 08:15:00
3:35 AM,35.1,32.0,89,30.18,10.0,NNW,9.2,-,N/A,,Unknown,340,2012-10-29 08:35:00
3:55 AM,35.1,32.0,89,30.18,10.0,North,11.5,-,N/A,,Unknown,350,2012-10-29 08:55:00
4:15 AM,34.7,31.8,89,30.18,10.0,NNW,10.4,-,N/A,,Clear,340,2012-10-29 09:15:00
4:35 AM,34.3,31.5,89,30.18,10.0,NNW,8.1,-,N/A,,Clear,340,2012-10-29 09:35:00
4:55 AM,33.3,30.7,90,30.18,10.0,NNW,8.1,-,N/A,,Clear,340,2012-10-29 09:55:00
5:15 AM,33.3,30.7,90,30.18,10.0,NNW,6.9,-,N/A,,Clear,330,2012-10-29 10:15:00
5:35 AM,33.4,30.9,90,30.18,10.0,NNW,8.1,-,N/A,,Clear,340,2012-10-29 10:35:00
5:55 AM,33.8,32.0,93,30.18,10.0,NNW,9.2,-,N/A,,Clear,330,2012-10-29 10:55:00
6:15 AM,33.1,31.1,92,30.18,10.0,NNW,9.2,-,N/A,,Clear,330,2012-10-29 11:15:00
6:35 AM,32.9,31.1,93,30.19,10.0,NNW,9.2,-,N/A,,Clear,330,2012-10-29 11:35:00
6:55 AM,32.4,30.9,94,30.19,10.0,NNW,9.2,-,N/A,,Clear,330,2012-10-29 11:55:00
7:15 AM,32.2,30.7,94,30.19,7.0,NNW,9.2,-,N/A,,Clear,330,2012-10-29 12:15:00
7:35 AM,32.2,30.7,94,30.19,10.0,NW,9.2,-,N/A,,Clear,320,2012-10-29 12:35:00
7:55 AM,32.9,31.1,93,30.19,7.0,NNW,11.5,-,N/A,,Clear,330,2012-10-29 12:55:00
8:15 AM,33.8,32.0,93,30.19,7.0,NNW,11.5,-,N/A,,Clear,330,2012-10-29 13:15:00
8:35 AM,35.4,32.9,91,30.19,7.0,NNW,9.2,-,N/A,,Clear,330,2012-10-29 13:35:00
8:55 AM,37.4,33.6,86,30.19,7.0,NNW,10.4,-,N/A,,Clear,330,2012-10-29 13:55:00
9:15 AM,39.4,34.5,83,30.19,10.0,NNW,8.1,-,N/A,,Clear,330,2012-10-29 14:15:00
9:35 AM,41.0,35.1,79,30.19,10.0,NNW,11.5,-,N/A,,Clear,340,2012-10-29 14:35:00
9:55 AM,43.5,35.4,73,30.19,10.0,NNW,10.4,17.3,N/A,,Clear,340,2012-10-29 14:55:00
10:15 AM,44.8,34.7,68,30.19,10.0,NNW,13.8,-,N/A,,Clear,340,2012-10-29 15:15:00
10:35 AM,46.8,34.9,63,30.18,10.0,North,16.1,26.5,N/A,,Clear,360,2012-10-29 15:35:00
10:55 AM,48.2,35.6,62,30.18,10.0,North,17.3,-,N/A,,Clear,360,2012-10-29 15:55:00
11:15 AM,48.6,35.1,60,30.18,10.0,North,21.9,25.3,N/A,,Scattered Clouds,360,2012-10-29 16:15:00
11:35 AM,48.9,34.5,58,30.18,10.0,North,21.9,32.2,N/A,,Scattered Clouds,360,2012-10-29 16:35:00
11:55 AM,49.5,34.0,55,30.17,10.0,North,18.4,28.8,N/A,,Scattered Clouds,350,2012-10-29 16:55:00
12:15 PM,51.1,34.7,54,30.16,10.0,North,19.6,25.3,N/A,,Mostly Cloudy,350,2012-10-29 17:15:00
12:35 PM,50.9,34.5,54,30.15,10.0,North,19.6,28.8,N/A,,Scattered Clouds,350,2012-10-29 17:35:00
12:55 PM,50.9,32.0,48,30.14,10.0,North,19.6,25.3,N/A,,Mostly Cloudy,350,2012-10-29 17:55:00
1:15 PM,52.0,31.8,46,30.12,10.0,NNW,18.4,25.3,N/A,,Scattered Clouds,340,2012-10-29 18:15:00
1:35 PM,52.5,33.8,49,30.12,10.0,North,18.4,26.5,N/A,,Scattered Clouds,350,2012-10-29 18:35:00
1:55 PM,52.2,33.1,48,30.11,10.0,NNW,21.9,28.8,N/A,,Scattered Clouds,340,2012-10-29 18:55:00
2:15 PM,51.4,33.1,50,30.10,10.0,North,18.4,27.6,N/A,,Mostly Cloudy,350,2012-10-29 19:15:00
2:35 PM,51.3,32.9,50,30.10,10.0,North,23.0,31.1,N/A,,Mostly Cloudy,360,2012-10-29 19:35:00
2:55 PM,51.1,32.0,48,30.10,10.0,North,17.3,32.2,N/A,,Scattered Clouds,350,2012-10-29 19:55:00
3:15 PM,52.5,32.0,46,30.09,10.0,North,26.5,31.1,N/A,,Scattered Clouds,350,2012-10-29 20:15:00
3:35 PM,52.7,32.2,46,30.09,10.0,North,20.7,35.7,N/A,,Scattered Clouds,350,2012-10-29 20:35:00
3:55 PM,50.4,32.0,49,30.09,10.0,North,24.2,28.8,N/A,,Mostly Cloudy,360,2012-10-29 20:55:00
4:15 PM,49.3,32.4,52,30.09,10.0,North,24.2,29.9,N/A,,Mostly Cloudy,360,2012-10-29 21:15:00
4:35 PM,48.6,32.0,53,30.09,10.0,North,20.7,31.1,N/A,,Unknown,360,2012-10-29 21:35:00
4:55 PM,48.7,31.5,51,30.09,10.0,North,18.4,31.1,N/A,,Unknown,350,2012-10-29 21:55:00
5:15 PM,47.7,31.3,53,30.08,10.0,North,23.0,28.8,N/A,,Unknown,360,2012-10-29 22:15:00
5:35 PM,46.6,31.5,56,30.07,10.0,North,25.3,28.8,N/A,,Unknown,360,2012-10-29 22:35:00
5:55 PM,45.1,31.5,59,30.08,10.0,North,19.6,27.6,N/A,,Unknown,360,2012-10-29 22:55:00
6:15 PM,44.1,31.8,62,30.07,10.0,North,18.4,23.0,N/A,,Clear,360,2012-10-29 23:15:00
6:35 PM,43.7,32.0,63,30.07,10.0,North,16.1,20.7,N/A,,Clear,350,2012-10-29 23:35:00
6:55 PM,43.7,32.0,63,30.06,10.0,NNW,19.6,24.2,N/A,,Clear,340,2012-10-29 23:55:00
7:15 PM,43.7,30.9,61,30.06,10.0,North,16.1,21.9,N/A,,Clear,350,2012-10-30 00:15:00
7:35 PM,43.2,29.7,59,30.05,10.0,North,19.6,25.3,N/A,,Clear,350,2012-10-30 00:35:00
10:35 PM,41.0,28.8,62,29.99,10.0,NW,16.1,21.9,N/A,,Clear,320,2012-10-30 03:35:00
10:55 PM,40.6,28.2,61,29.98,10.0,NNW,19.6,27.6,N/A,,Clear,330,2012-10-30 03:55:00
11:15 PM,40.5,28.2,62,29.97,10.0,NW,18.4,27.6,N/A,,Clear,320,2012-10-30 04:15:00
11:35 PM,40.3,28.4,63,29.97,10.0,NNW,19.6,26.5,N/A,,Clear,330,2012-10-30 04:35:00
11:55 PM,40.1,28.8,64,29.96,10.0,NW,17.3,25.3,N/A,,Clear,320,2012-10-30 04:55:00